User: anonymous   Login
Location: NJAA Observatory
(40.6819°N, 74.8979°W)
Time: 18:16:39
(UTC-04:00)
Language:

Iridium 4 - Orbit

View from above orbital plane
View from above orbital plane
View from above satellite
View from above satellite

Ground track
Ground track

The orbit data is extracted from the following two-line orbital elements,

1 24796U 97020E   15240.09079036  .00000174  00000-0  54230-4 0  9992
2 24796 086.3936 233.7261 0002388 088.3515 338.6798 14.34973468958780
Epoch (UTC): 28 August 2015 02:10:44
Eccentricity: 0.0002388
inclination: 86.3936°
perigee height: 773 km
apogee height: 777 km
right ascension of ascending node: 233.7261°
argument of perigee: 88.3515°
revolutions per day: 14.34973468
mean anomaly at epoch: 338.6798°
orbit number at epoch: 95878

The dashed part of the orbit path shows where the satellite is in the earth's shadow,  

DLR